TimeCST,TemperatureF,Dew PointF,Humidity,Sea Level PressureIn,VisibilityMPH,Wind Direction,Wind SpeedMPH,Gust SpeedMPH,PrecipitationIn,Events,Conditions,WindDirDegrees,DateUTC
1:27 AM,64.4,62.6,94,30.10,7.0,Calm,Calm,-,N/A,,Clear,0,2014-02-16 07:27:00
2:59 AM,62.6,62.6,100,30.12,7.0,Calm,Calm,-,N/A,,Clear,0,2014-02-16 08:59:00
3:40 AM,60.8,60.8,100,30.08,7.0,Calm,Calm,-,N/A,,Partly Cloudy,0,2014-02-16 09:40:00
4:43 AM,60.8,60.8,100,30.08,7.0,Calm,Calm,-,N/A,,Partly Cloudy,0,2014-02-16 10:43:00
5:44 AM,60.8,60.8,100,30.08,7.0,Calm,Calm,-,N/A,,Partly Cloudy,0,2014-02-16 11:44:00
6:46 AM,60.8,60.8,100,30.11,7.0,Calm,Calm,-,N/A,,Clear,0,2014-02-16 12:46:00
7:40 AM,68.0,64.4,88,30.12,8.0,Calm,Calm,-,N/A,,Scattered Clouds,0,2014-02-16 13:40:00
8:40 AM,73.4,64.4,73,30.18,10.0,East,8.1,-,N/A,,Scattered Clouds,80,2014-02-16 14:40:00
9:43 AM,75.2,64.4,69,30.15,10.0,East,13.8,-,N/A,,Partly Cloudy,90,2014-02-16 15:43:00
10:47 AM,77.0,64.4,65,30.15,10.0,ENE,13.8,-,N/A,,Partly Cloudy,70,2014-02-16 16:47:00
11:42 AM,77.0,64.4,65,30.12,10.0,ENE,13.8,-,N/A,,Scattered Clouds,70,2014-02-16 17:42:00
12:41 PM,78.8,64.4,61,30.11,10.0,ENE,11.5,-,N/A,,Scattered Clouds,60,2014-02-16 18:41:00
1:40 PM,78.8,64.4,61,30.08,10.0,East,13.8,-,N/A,,Scattered Clouds,80,2014-02-16 19:40:00
2:42 PM,77.0,64.4,65,30.10,9.0,East,8.1,-,N/A,,Scattered Clouds,90,2014-02-16 20:42:00
3:54 PM,77.0,64.4,65,30.07,8.0,NE,9.2,-,N/A,,Scattered Clouds,50,2014-02-16 21:54:00
4:43 PM,75.2,64.4,69,30.08,8.0,ENE,9.2,-,N/A,,Scattered Clouds,70,2014-02-16 22:43:00
5:51 PM,71.6,64.4,78,30.07,8.0,ENE,3.5,-,N/A,,Scattered Clouds,70,2014-02-16 23:51:00
6:50 PM,68.0,60.8,78,30.10,7.0,Calm,Calm,-,N/A,,Scattered Clouds,0,2014-02-17 00:50:00
7:52 PM,68.0,64.4,88,30.12,7.0,East,3.5,-,N/A,,Partly Cloudy,80,2014-02-17 01:52:00
8:49 PM,66.2,62.6,88,30.15,7.0,ENE,3.5,-,N/A,,Partly Cloudy,70,2014-02-17 02:49:00
10:01 PM,64.4,62.6,94,30.12,7.0,East,34.5,-,N/A,,Partly Cloudy,80,2014-02-17 04:01:00
10:41 PM,64.4,62.6,94,30.12,7.0,East,3.5,-,N/A,,Partly Cloudy,90,2014-02-17 04:41:00